< < Back
Terminal Aerodrome Forecast


Current Version              Previous Versions:   1  2  3  4  5  6  7  8  9  

Terminal Aerodrome Forecast

883
FTUS42 KGSP 291132
TAFHKY
TAF
KHKY 291132Z 2912/3012 00000KT 6SM BR SCT007 BKN015
     FM291400 19003KT P6SM SCT015 BKN025
     FM291800 20005KT P6SM VCSH BKN035
      TEMPO 2919/2923 VRB10G20KT 4SM TSRA BKN030CB
     FM300700 00000KT P6SM BKN060=

Latest METAR

670
SAUS70 KWBC 300400 RRC
MTRHKY
METAR KHKY 300353Z AUTO 36004KT 10SM CLR 24/22 A3003 RMK AO2 LTG DSNT NW
SLP144 T02440222


USA.gov is the U.S. government's official web portal to all federal, state and local government web resources and services.